When you browse on this site, cookies collect data to enhance your experience and personalize the content and advertising you see.
Visit our Privacy Policy to learn more. By continuing to use the site, you agree to this use of cookies and data.

Hourly Weather Tlanchinol

Today, 6 August, Thursday

Time Temperature Precipitation Wind Pressure Humidity
00:00 +18°C° 0 mm 1 mps 646 mmHg 94%
01:00 +18°C° 0 mm 1 mps 646 mmHg 94%
02:00 +16°C° 0 mm 1 mps 645 mmHg 94%
03:00 +16°C° 0 mm 1 mps 645 mmHg 94%
04:00 +16°C° 0 mm 1 mps 645 mmHg 94%
05:00 +16°C° 0 mm 1 mps 645 mmHg 94%
06:00 +19°C° 0 mm 1 mps 646 mmHg 88%
07:00 +21°C° 0 mm 1 mps 647 mmHg 82%
08:00 +23°C° 0 mm 1 mps 648 mmHg 76%
09:00 +23°C° 0.3 mm 1 mps 648 mmHg 75%
10:00 +24°C° 0.3 mm 2 mps 648 mmHg 74%
11:00 +24°C° 0.3 mm 2 mps 648 mmHg 73%
12:00 +24°C° 0.7 mm 2 mps 647 mmHg 73%
13:00 +25°C° 0.7 mm 2 mps 646 mmHg 73%
14:00 +25°C° 0.7 mm 2 mps 646 mmHg 73%
15:00 +24°C° 0.4 mm 1 mps 646 mmHg 76%
16:00 +24°C° 0.4 mm 1 mps 646 mmHg 78%
17:00 +23°C° 0.4 mm 1 mps 645 mmHg 81%
18:00 +22°C° 0.2 mm 1 mps 646 mmHg 85%
19:00 +20°C° 0.2 mm 1 mps 646 mmHg 90%
20:00 +17°C° 0.2 mm 0 mps 646 mmHg 95%
21:00 +17°C° 0.3 mm 0 mps 646 mmHg 95%
22:00 +16°C° 0.3 mm 0 mps 646 mmHg 95%
23:00 +16°C° 0.3 mm 0 mps 646 mmHg 95%

Tomorrow, 7 August, Friday

Time Temperature Precipitation Wind Pressure Humidity
00:00 +16°C° 0.6 mm 0 mps 646 mmHg 95%
01:00 +18°C° 0.6 mm 1 mps 646 mmHg 95%
02:00 +18°C° 0.6 mm 1 mps 646 mmHg 95%
03:00 +16°C° 0.1 mm 1 mps 645 mmHg 95%
04:00 +16°C° 0.1 mm 1 mps 645 mmHg 94%
05:00 +16°C° 0.1 mm 1 mps 645 mmHg 94%
06:00 +19°C° 0.1 mm 1 mps 646 mmHg 90%
07:00 +20°C° 0.1 mm 1 mps 647 mmHg 85%
08:00 +22°C° 0.1 mm 1 mps 648 mmHg 80%
09:00 +23°C° 0.4 mm 1 mps 648 mmHg 75%
10:00 +24°C° 0.4 mm 1 mps 648 mmHg 70%
11:00 +25°C° 0.4 mm 2 mps 648 mmHg 66%
12:00 +25°C° 1.5 mm 2 mps 647 mmHg 70%
13:00 +24°C° 1.5 mm 2 mps 647 mmHg 73%
14:00 +24°C° 1.5 mm 2 mps 646 mmHg 77%
15:00 +23°C° 2.7 mm 1 mps 646 mmHg 82%
16:00 +22°C° 2.7 mm 1 mps 646 mmHg 86%
17:00 +21°C° 2.7 mm 1 mps 646 mmHg 91%
18:00 +20°C° 1.5 mm 1 mps 646 mmHg 92%
19:00 +19°C° 1.5 mm 1 mps 647 mmHg 93%
20:00 +18°C° 1.5 mm 1 mps 647 mmHg 94%
21:00 +18°C° 0.4 mm 1 mps 647 mmHg 94%
22:00 +18°C° 0.4 mm 1 mps 647 mmHg 95%
23:00 +18°C° 0.4 mm 1 mps 647 mmHg 95%

Day after tomorrow, 8 August, Saturday

Time Temperature Precipitation Wind Pressure Humidity
00:00 +16°C° 0.1 mm 1 mps 647 mmHg 94%
01:00 +16°C° 0.1 mm 1 mps 647 mmHg 94%
02:00 +16°C° 0.1 mm 1 mps 646 mmHg 93%
03:00 +16°C° 0 mm 1 mps 646 mmHg 93%
04:00 +16°C° 0 mm 1 mps 646 mmHg 93%
05:00 +16°C° 0 mm 1 mps 647 mmHg 94%
06:00 +18°C° 0 mm 1 mps 647 mmHg 88%
07:00 +20°C° 0 mm 1 mps 648 mmHg 83%
08:00 +20°C° 0 mm 0 mps 649 mmHg 77%
09:00 +23°C° 0.1 mm 1 mps 649 mmHg 73%
10:00 +24°C° 0.1 mm 2 mps 649 mmHg 69%
11:00 +25°C° 0.1 mm 2 mps 649 mmHg 65%
12:00 +24°C° 1 mm 2 mps 648 mmHg 70%
13:00 +23°C° 1 mm 2 mps 648 mmHg 76%
14:00 +23°C° 1 mm 2 mps 647 mmHg 82%
15:00 +22°C° 1.3 mm 1 mps 647 mmHg 84%
16:00 +22°C° 1.3 mm 1 mps 647 mmHg 86%
17:00 +21°C° 1.3 mm 1 mps 647 mmHg 89%
18:00 +20°C° 0.1 mm 1 mps 647 mmHg 90%
19:00 +19°C° 0.1 mm 1 mps 648 mmHg 92%
20:00 +18°C° 0.1 mm 1 mps 648 mmHg 93%
21:00 +18°C° 0 mm 1 mps 648 mmHg 93%
22:00 +16°C° 0 mm 1 mps 648 mmHg 94%
23:00 +16°C° 0 mm 1 mps 648 mmHg 94%

9 August, Sunday

Time Temperature Precipitation Wind Pressure Humidity
00:00 +16°C° 0 mm 1 mps 648 mmHg 94%
01:00 +16°C° 0 mm 1 mps 647 mmHg 94%
02:00 +16°C° 0 mm 1 mps 647 mmHg 93%
03:00 +15°C° 0 mm 1 mps 647 mmHg 93%
04:00 +15°C° 0 mm 1 mps 647 mmHg 93%
05:00 +15°C° 0 mm 1 mps 647 mmHg 93%
06:00 +18°C° 0 mm 1 mps 648 mmHg 87%
07:00 +19°C° 0 mm 1 mps 648 mmHg 81%
08:00 +21°C° 0 mm 1 mps 649 mmHg 76%
09:00 +22°C° 0 mm 1 mps 649 mmHg 70%
10:00 +23°C° 0 mm 2 mps 649 mmHg 64%
11:00 +25°C° 0 mm 2 mps 649 mmHg 59%
12:00 +25°C° 0 mm 2 mps 649 mmHg 60%
13:00 +25°C° 0 mm 2 mps 648 mmHg 60%
14:00 +25°C° 0 mm 2 mps 648 mmHg 61%
15:00 +24°C° 0.7 mm 2 mps 647 mmHg 70%
16:00 +21°C° 0.7 mm 2 mps 647 mmHg 80%
17:00 +21°C° 0.7 mm 1 mps 646 mmHg 89%
18:00 +20°C° 0.3 mm 1 mps 647 mmHg 91%
19:00 +19°C° 0.3 mm 1 mps 647 mmHg 93%
20:00 +16°C° 0.3 mm 0 mps 647 mmHg 94%
21:00 +16°C° 0.1 mm 0 mps 647 mmHg 94%
22:00 +16°C° 0.1 mm 0 mps 647 mmHg 95%
23:00 +18°C° 0.1 mm 1 mps 647 mmHg 95%

10 August, Monday

Time Temperature Precipitation Wind Pressure Humidity
00:00 +18°C° 0 mm 1 mps 647 mmHg 95%
01:00 +16°C° 0 mm 1 mps 647 mmHg 94%
02:00 +16°C° 0 mm 1 mps 646 mmHg 94%
03:00 +16°C° 0 mm 1 mps 646 mmHg 94%
04:00 +16°C° 0 mm 1 mps 646 mmHg 94%
05:00 +16°C° 0 mm 1 mps 646 mmHg 93%
06:00 +18°C° 0 mm 1 mps 647 mmHg 88%
07:00 +18°C° 0 mm 0 mps 648 mmHg 83%
08:00 +19°C° 0 mm 0 mps 648 mmHg 77%
09:00 +23°C° 0 mm 1 mps 648 mmHg 71%
10:00 +24°C° 0 mm 1 mps 648 mmHg 65%
11:00 +25°C° 0 mm 2 mps 648 mmHg 59%
12:00 +25°C° 0 mm 2 mps 648 mmHg 60%
13:00 +25°C° 0 mm 3 mps 647 mmHg 61%
14:00 +25°C° 0 mm 3 mps 646 mmHg 63%
15:00 +24°C° 0.4 mm 2 mps 646 mmHg 70%
16:00 +23°C° 0.4 mm 2 mps 646 mmHg 77%
17:00 +21°C° 0.4 mm 2 mps 646 mmHg 84%
18:00 +21°C° 0.6 mm 1 mps 646 mmHg 88%
19:00 +19°C° 0.6 mm 1 mps 646 mmHg 91%
20:00 +18°C° 0.6 mm 1 mps 646 mmHg 94%
21:00 +18°C° 0.2 mm 1 mps 646 mmHg 94%
22:00 +18°C° 0.2 mm 1 mps 646 mmHg 94%
23:00 +18°C° 0.2 mm 1 mps 646 mmHg 94%

11 August, Tuesday

Time Temperature Precipitation Wind Pressure Humidity
00:00 +18°C° 0.1 mm 1 mps 646 mmHg 93%
01:00 +16°C° 0.1 mm 1 mps 645 mmHg 93%
02:00 +16°C° 0.1 mm 1 mps 645 mmHg 93%
03:00 +16°C° 0 mm 1 mps 645 mmHg 93%
04:00 +16°C° 0 mm 1 mps 645 mmHg 93%
05:00 +15°C° 0 mm 0 mps 645 mmHg 93%
06:00 +18°C° 0 mm 1 mps 646 mmHg 89%
07:00 +20°C° 0 mm 1 mps 647 mmHg 85%
08:00 +21°C° 0 mm 1 mps 647 mmHg 81%
09:00 +21°C° 0.9 mm 1 mps 647 mmHg 84%
10:00 +20°C° 0.9 mm 1 mps 647 mmHg 88%
11:00 +20°C° 0.9 mm 1 mps 646 mmHg 91%
12:00 +20°C° 0.6 mm 2 mps 646 mmHg 84%
13:00 +21°C° 0.6 mm 2 mps 646 mmHg 76%
14:00 +23°C° 0.6 mm 2 mps 646 mmHg 69%
15:00 +21°C° 0.3 mm 2 mps 645 mmHg 74%
16:00 +20°C° 0.3 mm 2 mps 645 mmHg 79%
17:00 +19°C° 0.3 mm 2 mps 645 mmHg 84%
18:00 +19°C° 0.1 mm 1 mps 645 mmHg 87%
19:00 +19°C° 0.1 mm 1 mps 646 mmHg 89%
20:00 +18°C° 0.1 mm 1 mps 646 mmHg 92%
21:00 +18°C° 0.2 mm 1 mps 646 mmHg 92%
22:00 +16°C° 0.2 mm 1 mps 646 mmHg 93%
23:00 +15°C° 0.2 mm 0 mps 646 mmHg 93%
Show more